Weather reports worldwide

Advertisment
Saarbrücken-Ensheim, Germany (10708): temperature & dewpoint: 16.06.2018 15:00:00 - 22.06.2018 15:00:00 (CEST)Saarbrücken-Ensheim, Germany (10708): temperature 5cm & temperature -5cm: 16.06.2018 15:00:00 - 22.06.2018 15:00:00 (CEST)Saarbrücken-Ensheim, Germany (10708): temperature -20cm & temperature -100cm: 16.06.2018 15:00:00 - 22.06.2018 15:00:00 (CEST)Saarbrücken-Ensheim, Germany (10708): wind speed & gusts: 16.06.2018 15:00:00 - 22.06.2018 15:00:00 (CEST)Saarbrücken-Ensheim, Germany (10708): wind direction: 16.06.2018 15:00:00 - 22.06.2018 15:00:00 (CEST)Saarbrücken-Ensheim, Germany (10708): reduced air pressure: 16.06.2018 15:00:00 - 22.06.2018 15:00:00 (CEST)Saarbrücken-Ensheim, Germany (10708): visibility: 16.06.2018 15:00:00 - 22.06.2018 15:00:00 (CEST)Saarbrücken-Ensheim, Germany (10708): sunshine duration: 16.06.2018 15:00:00 - 22.06.2018 15:00:00 (CEST)Saarbrücken-Ensheim, Germany (10708): precipitation: 16.06.2018 15:00:00 - 22.06.2018 15:00:00 (CEST)
Date & Time tt [°C] td [°C] tt 5cm [°C] tt -5cm [°C] tt -20cm [°C] tt -100cm [°C] ff [km/h] ff [kn] fx [km/h] fx [kn] dd ppp [hPa] vv [km] sd [min] rr [mm]
22.06.2018 15:00:00 15,6 5,1 19,4 28,4 22,0 18,6 21 11 36 20 NW 1025,6 10 37 0,0
22.06.2018 14:00:00 15,5 5,2 19,9 25,7 21,5 18,5 25 13 31 17 NNW 1026,0 50 25 0,0
22.06.2018 13:00:00 14,6 5,6 17,9 24,5 21,1 18,5 21 11 33 18 WNW 1026,3 10 13 0,0
22.06.2018 12:00:00 14,7 5,5 21,6 23,9 20,5 18,5 18 10 29 16 NW 1026,3 50 32 0,0
22.06.2018 11:00:00 12,6 4,8 16,6 22,1 20,0 18,5 21 11 41 22 NNW 1026,7 10 41 0,0
22.06.2018 10:00:00 12,8 5,9 18,6 19,6 19,7 18,5 15 8 29 16 NNW 1026,8 45 44 0,0
22.06.2018 09:00:00 11,6 5,9 16,5 17,1 19,6 18,5 14 8 24 13 NW 1026,6 40 60 0,0
22.06.2018 08:00:00 9,6 5,5 12,9 15,0 19,8 18,5 10 5 15 8 WNW 1026,8 35 60 0,0
22.06.2018 07:00:00 8,5 5,7 10,0 13,8 20,2 18,5 4 2 5 3 - 1026,6 10 42 0,0
22.06.2018 06:00:00 6,4 4,6 3,9 13,9 20,7 18,4 5 3 11 6 W 1026,7 40 1 0,0
22.06.2018 05:00:00 6,3 4,0 3,9 14,6 21,2 18,4 9 5 18 10 WNW 1026,5 10 0 0,0
22.06.2018 04:00:00 7,8 4,3 5,7 15,3 21,8 18,4 10 5 25 13 NNW 1026,3 40 0 0,0
22.06.2018 03:00:00 8,7 4,3 7,0 16,2 22,4 18,4 11 6 22 12 NNW 1026,0 40 0 0,0
22.06.2018 02:00:00 8,8 3,7 6,9 17,1 23,0 18,4 11 6 22 12 NNW 1025,9 40 0 0,0
22.06.2018 01:00:00 10,1 3,1 8,3 18,2 23,7 18,4 9 5 21 11 NNW 1025,4 40 0 0,0
22.06.2018 00:00:00 11,4 3,0 9,9 19,5 24,4 18,4 13 7 31 17 NNW 1024,9 10 0 0,0
21.06.2018 23:00:00 12,6 2,9 11,5 21,0 25,1 18,4 20 11 37 20 NNW 1024,0 60 0 0,0
21.06.2018 22:00:00 13,5 4,1 12,2 23,0 25,8 18,4 21 11 38 21 NNW 1023,0 10 33 0,0
21.06.2018 21:00:00 15,8 4,2 15,3 25,5 26,3 18,4 19 10 38 20 NNW 1021,6 60 60 0,0
21.06.2018 20:00:00 17,7 4,4 17,7 27,9 26,6 18,3 21 12 41 22 NW 1020,5 60 60 0,0
21.06.2018 19:00:00 18,7 5,7 20,4 30,7 26,6 18,3 18 10 40 22 NNW 1019,8 60 60 0,0
21.06.2018 18:00:00 19,8 5,7 22,9 32,2 26,3 18,3 20 11 39 21 NNW 1019,1 60 60 0,0
21.06.2018 17:00:00 21,0 7,7 25,3 32,3 25,9 18,3 23 12 41 22 NW 1018,5 60 54 0,0
21.06.2018 16:00:00 20,5 10,7 24,8 31,3 25,6 18,3 22 12 40 22 NNW 1018,1 50 45 0,0
21.06.2018 15:00:00 19,4 12,2 22,8 30,3 25,3 18,3 21 11 37 20 WNW 1018,3 10 24 0,0
21.06.2018 14:00:00 19,6 13,5 22,6 30,0 25,0 18,3 23 12 40 21 NW 1018,0 50 17 0,0
21.06.2018 13:00:00 21,8 13,1 27,4 29,9 24,5 18,3 24 13 44 24 W 1017,4 10 32 0,0
21.06.2018 12:00:00 20,5 12,7 22,4 29,7 23,9 18,3 26 14 48 26 W 1017,6 45 45 0,0
21.06.2018 11:00:00 22,1 12,9 - - - - 18 10 38 20 W 1016,9 45 60 0,0
21.06.2018 10:00:00 21,0 13,9 24,8 25,5 22,8 18,2 22 12 34 18 WNW 1017,0 10 60 0,0
21.06.2018 09:00:00 20,0 14,5 24,1 22,7 22,7 18,2 13 7 21 11 W 1017,0 40 54 0,0
21.06.2018 08:00:00 19,0 15,1 22,3 20,7 22,9 18,2 8 4 9 5 W 1016,9 10 60 0,0
21.06.2018 07:00:00 17,3 14,8 18,2 19,6 23,3 18,2 6 3 13 7 W 1017,2 40 57 0,0
21.06.2018 06:00:00 15,7 13,9 14,4 20,0 23,7 18,2 10 6 15 8 W 1017,2 50 0 0,0
21.06.2018 05:00:00 16,7 14,2 14,6 20,8 24,2 18,2 11 6 16 9 W 1017,2 50 0 0,0
21.06.2018 04:00:00 16,9 14,3 15,7 21,2 24,7 18,2 12 6 16 9 WNW 1017,5 50 0 0,0
21.06.2018 03:00:00 17,2 14,5 13,4 21,9 25,3 18,2 8 4 11 6 W 1017,5 10 0 0,0
21.06.2018 02:00:00 18,0 15,0 13,7 22,9 26,0 18,2 9 5 13 7 WNW 1017,8 60 0 0,0
21.06.2018 01:00:00 18,0 14,3 14,0 24,1 26,7 18,2 8 4 8 4 W 1017,8 10 0 0,0
21.06.2018 00:00:00 19,5 14,4 15,0 25,6 27,4 18,2 2 1 4 2 NW 1018,0 60 0 0,0
20.06.2018 23:00:00 20,2 14,7 16,0 27,4 28,2 18,2 2 1 11 6 NNW 1018,1 70 0 0,0
20.06.2018 22:00:00 22,8 15,3 17,6 29,8 28,8 18,2 8 4 - - NNW 1017,5 10 - 0,0
20.06.2018 21:00:00 26,2 16,2 - - - - 7 4 - - NNW 1016,9 70 - 0,0
20.06.2018 20:00:00 27,4 16,4 - - - - 5 3 - - NNW 1017,0 10 - 0,0
20.06.2018 19:00:00 28,7 15,9 - - - - 7 4 - - WSW 1017,2 60 - 0,0
20.06.2018 18:00:00 29,3 15,1 - - - - 4 2 16 9 - 1017,4 10 - 0,0
20.06.2018 17:00:00 28,9 15,4 - - - - 7 4 - - W 1018,0 60 - 0,0
20.06.2018 16:00:00 28,0 16,0 - - - - 5 3 - - - 1018,5 10 - 0,0
20.06.2018 15:00:00 27,8 16,4 - - - - 8 4 - - W 1019,0 10 - 0,0
20.06.2018 14:00:00 26,9 16,5 - - - - 4 2 - - - 1019,6 10 - 0,0
20.06.2018 13:00:00 26,0 16,0 - - - - 5 3 - - - 1020,4 10 - 0,0
20.06.2018 12:00:00 25,0 16,4 - - - - 4 2 - - - 1020,8 10 - 0,0
20.06.2018 11:00:00 23,0 15,8 26,7 27,2 20,7 18,1 8 4 20 11 E 1021,3 10 60 0,0
20.06.2018 10:00:00 21,4 15,3 23,5 23,6 20,2 18,1 13 7 21 11 E 1021,8 10 60 0,0
20.06.2018 09:00:00 19,9 15,2 22,0 20,4 19,9 18,1 11 6 21 11 E 1022,2 35 60 0,0
20.06.2018 08:00:00 17,6 14,8 18,9 18,1 20,0 18,1 10 5 16 9 ENE 1022,6 35 60 0,0
20.06.2018 07:00:00 16,3 14,6 15,7 16,8 20,2 18,1 10 5 16 9 ENE 1022,8 35 56 0,0
20.06.2018 06:00:00 14,6 13,8 13,5 16,6 20,5 18,1 13 7 16 9 ENE 1023,1 10 0 0,0
20.06.2018 05:00:00 14,4 13,7 12,1 16,8 20,9 18,1 11 6 16 9 NE 1023,3 10 0 0,0
20.06.2018 04:00:00 14,6 14,1 10,4 17,3 21,3 18,1 5 3 9 5 E 1023,6 25 0 0,0
20.06.2018 03:00:00 13,3 12,6 10,8 18,0 21,8 18,1 3 2 5 3 E 1024,1 25 0 0,0
20.06.2018 02:00:00 14,3 13,7 11,3 18,8 22,3 18,1 2 1 4 2 SW 1024,3 35 0 0,0
20.06.2018 01:00:00 14,7 13,9 11,8 19,7 22,8 18,1 3 1 4 2 W 1024,2 40 0 0,0
20.06.2018 00:00:00 15,2 14,2 12,5 20,8 23,3 18,1 2 1 8 4 - 1024,4 10 0 0,0
19.06.2018 23:00:00 16,3 14,8 13,4 22,1 23,8 18,1 5 3 11 6 NW 1024,1 10 0 0,0
19.06.2018 22:00:00 18,4 15,1 14,7 23,8 24,2 18,1 8 4 9 5 NW 1023,6 10 5 0,0
19.06.2018 21:00:00 19,7 15,0 16,9 25,8 24,5 18,1 8 4 10 6 WNW 1023,6 10 29 0,0
19.06.2018 20:00:00 21,3 15,1 21,3 27,3 24,6 18,1 5 3 13 7 WNW 1023,6 10 3 0,0
19.06.2018 19:00:00 21,3 14,8 23,4 29,2 24,4 18,1 6 4 16 9 NW 1023,9 60 11 0,0
19.06.2018 18:00:00 21,7 13,9 24,5 30,2 24,1 18,1 11 6 15 8 NW 1023,9 60 7 0,0
19.06.2018 17:00:00 22,2 14,7 27,3 30,8 23,5 18,1 6 3 21 11 W 1024,1 60 8 0,0
19.06.2018 16:00:00 21,6 14,1 27,2 31,0 22,8 18,1 5 3 16 9 WNW 1024,3 60 25 0,0
19.06.2018 15:00:00 21,0 14,1 25,8 28,3 22,2 18,1 6 3 15 8 WNW 1024,7 60 6 0,0
19.06.2018 14:00:00 20,1 13,6 24,7 27,3 21,6 18,1 9 5 16 9 W 1024,9 10 3 0,0
19.06.2018 13:00:00 20,3 14,1 24,3 25,7 21,1 18,1 7 4 13 7 W 1024,9 50 0 0,0
19.06.2018 12:00:00 19,0 13,7 22,6 24,9 20,5 18,1 9 5 18 10 WSW 1025,1 40 4 0,0
19.06.2018 11:00:00 18,7 13,3 23,7 23,1 20,0 18,1 11 6 21 11 W 1025,3 10 29 0,0
19.06.2018 10:00:00 17,8 13,5 21,2 21,2 19,7 18,1 10 5 21 11 WNW 1025,3 35 20 0,0
19.06.2018 09:00:00 17,3 13,8 21,9 19,6 19,4 18,1 8 5 18 10 WNW 1025,3 25 59 0,0
19.06.2018 08:00:00 15,6 13,7 19,4 17,3 19,5 18,1 8 4 11 6 W 1025,1 10 60 0,0
19.06.2018 07:00:00 15,2 13,9 15,2 16,0 19,7 18,1 0 0 5 3 N 1024,8 30 60 0,0
19.06.2018 06:00:00 12,3 11,5 10,0 16,0 20,1 18,1 2 1 8 4 NW 1025,1 35 3 0,0
19.06.2018 05:00:00 13,8 12,8 10,5 16,7 20,4 18,1 5 3 9 5 WSW 1024,6 35 0 0,0
19.06.2018 04:00:00 14,7 13,5 12,8 17,2 20,7 18,1 8 4 10 6 WSW 1024,3 40 0 0,0
19.06.2018 03:00:00 13,8 12,7 11,4 17,2 21,1 18,1 4 2 8 4 SSW 1024,3 40 0 0,0
19.06.2018 02:00:00 13,8 12,8 10,9 17,8 21,5 18,1 5 3 6 3 SSE 1024,1 50 0 0,0
19.06.2018 01:00:00 14,7 13,2 11,6 18,7 22,0 18,1 4 2 9 5 SSE 1023,8 50 0 0,0
19.06.2018 00:00:00 15,4 13,5 12,0 19,7 22,5 18,1 7 4 12 7 SW 1023,8 60 0 0,0
18.06.2018 23:00:00 16,3 13,7 13,0 21,0 22,9 18,1 9 5 13 7 WSW 1023,6 60 0 0,0
18.06.2018 22:00:00 17,6 14,0 14,7 22,6 23,2 18,1 11 6 15 8 WSW 1022,9 60 25 0,0
18.06.2018 21:00:00 18,9 13,8 19,2 23,8 23,5 18,1 10 5 13 7 WSW 1022,5 70 0 0,0
18.06.2018 20:00:00 19,1 13,5 20,1 24,6 23,6 18,1 11 6 16 9 W 1022,3 10 0 0,0
18.06.2018 19:00:00 19,4 13,2 20,8 25,9 23,7 18,1 15 8 18 10 W 1022,5 10 0 0,0
18.06.2018 18:00:00 19,9 13,3 21,7 26,8 23,7 18,0 11 6 18 10 WSW 1022,4 10 0 0,0
18.06.2018 17:00:00 19,8 12,8 22,4 27,6 23,6 18,0 15 8 21 11 W 1022,5 60 0 0,0
18.06.2018 16:00:00 20,1 12,8 22,8 28,7 23,2 18,0 14 8 22 12 WSW 1022,5 70 0 0,0
18.06.2018 15:00:00 20,2 12,4 24,4 29,5 22,6 18,0 16 9 25 14 WSW 1022,5 60 13 0,0
18.06.2018 14:00:00 19,9 12,1 24,4 28,4 22,0 18,0 15 8 22 12 WSW 1022,5 10 13 0,0
18.06.2018 13:00:00 19,0 11,7 22,8 26,1 21,5 18,0 15 8 21 11 SW 1023,0 10 0 0,0
18.06.2018 12:00:00 18,1 10,4 21,1 26,1 20,8 18,0 15 8 22 12 WSW 1023,0 10 17 0,0
18.06.2018 11:00:00 18,7 10,3 22,9 24,1 20,2 18,0 11 6 21 11 SW 1022,6 60 33 0,0
18.06.2018 10:00:00 17,8 11,5 19,9 22,8 19,8 18,0 11 6 16 9 SW 1022,7 10 46 0,0
18.06.2018 09:00:00 17,2 12,2 20,8 19,5 19,6 18,0 9 5 15 8 W 1022,7 10 60 0,0
18.06.2018 08:00:00 16,0 12,2 18,2 17,2 19,6 18,0 5 3 9 5 SSW 1022,6 10 60 0,0
18.06.2018 07:00:00 13,9 11,1 14,4 16,1 19,9 18,0 2 1 4 2 - 1022,5 10 36 0,0
18.06.2018 06:00:00 12,0 10,4 9,3 16,4 20,3 18,0 2 1 0 0 - 1022,7 10 0 0,0
18.06.2018 05:00:00 13,1 10,2 10,8 17,3 20,5 18,0 2 1 4 2 - 1022,3 10 0 0,0
18.06.2018 04:00:00 13,4 10,9 12,8 17,7 20,8 18,0 2 1 4 2 ESE 1022,3 10 0 0,0
18.06.2018 03:00:00 13,7 10,2 12,4 18,1 21,1 18,0 4 2 8 4 WSW 1022,4 10 0 0,0
18.06.2018 02:00:00 14,1 10,0 12,8 18,5 21,5 18,0 5 3 11 6 WSW 1022,2 10 0 0,0
18.06.2018 01:00:00 14,7 9,9 13,9 19,0 21,8 17,9 8 5 15 8 W 1022,1 45 0 0,0
18.06.2018 00:00:00 15,1 10,0 14,4 19,6 22,2 17,9 8 4 16 9 W 1021,6 45 0 0,0
17.06.2018 23:00:00 15,3 10,1 14,7 20,4 22,6 17,9 11 6 20 11 W 1021,4 45 0 0,0
17.06.2018 22:00:00 15,8 10,1 15,1 21,4 23,0 17,9 9 5 21 11 W 1020,6 10 0 0,0
17.06.2018 21:00:00 16,7 10,0 16,7 22,8 23,3 17,9 15 8 23 12 WNW 1020,5 10 0 0,0
17.06.2018 20:00:00 17,1 10,0 17,0 24,4 23,4 17,9 15 8 37 20 W 1020,1 10 29 0,0
17.06.2018 19:00:00 17,6 10,3 18,4 25,7 23,5 17,9 16 9 29 16 WNW 1019,5 45 19 0,0
17.06.2018 18:00:00 18,2 11,0 20,2 25,6 23,5 17,9 18 10 28 15 W 1019,1 10 0 0,0
17.06.2018 17:00:00 18,5 10,7 20,7 26,3 23,4 17,9 20 11 31 17 W 1019,0 40 0 0,0
17.06.2018 16:00:00 19,0 11,5 21,4 27,8 23,1 17,9 23 12 30 16 W 1018,7 50 9 0,0
17.06.2018 15:00:00 19,5 11,8 22,8 27,9 22,6 17,9 19 10 35 19 WNW 1018,5 50 24 0,0
17.06.2018 14:00:00 18,7 10,7 20,2 26,0 22,3 17,9 20 11 29 16 W 1018,6 50 14 0,0
17.06.2018 13:00:00 19,6 11,7 23,0 26,2 21,9 17,9 13 7 22 12 WSW 1018,4 10 12 0,0
17.06.2018 12:00:00 19,7 12,8 24,9 24,9 21,4 17,9 9 5 16 9 WSW 1018,3 10 10 0,0
17.06.2018 11:00:00 18,7 11,9 21,5 24,7 20,9 17,9 9 5 21 11 W 1018,4 10 31 0,0
17.06.2018 10:00:00 18,7 12,1 23,3 22,4 20,5 17,9 9 5 16 8 W 1018,5 10 60 0,0
17.06.2018 09:00:00 17,5 12,7 21,6 19,3 20,4 17,8 2 1 5 3 - 1018,5 10 27 0,0
17.06.2018 08:00:00 15,1 12,2 16,0 17,9 20,5 17,8 3 2 5 3 WSW 1018,5 35 5 0,0
17.06.2018 07:00:00 14,2 12,3 14,3 17,0 20,9 17,8 4 2 5 3 - 1018,5 10 18 0,0
17.06.2018 06:00:00 12,4 11,6 11,6 16,9 21,3 17,8 4 2 8 4 WNW 1018,4 30 0 0,0
17.06.2018 05:00:00 11,8 10,8 9,6 17,3 21,8 17,8 3 2 8 4 S 1018,2 30 0 0,0
17.06.2018 04:00:00 12,3 10,9 10,4 18,1 22,3 17,8 5 3 8 4 WNW 1017,9 10 0 0,0
17.06.2018 03:00:00 12,7 11,1 10,2 19,0 22,9 17,8 5 3 10 6 WNW 1017,8 50 0 0,0
17.06.2018 02:00:00 14,4 11,0 10,9 20,1 23,5 17,8 5 3 8 4 SSW 1017,4 10 0 0,0
17.06.2018 01:00:00 16,1 11,3 13,3 21,4 24,0 17,8 5 3 13 7 W 1017,3 10 0 0,0
17.06.2018 00:00:00 17,3 12,2 16,6 22,5 24,6 17,8 9 5 25 14 NW 1016,9 50 0 0,0
16.06.2018 23:00:00 18,2 13,7 17,6 23,8 25,3 17,8 18 10 24 13 WNW 1016,3 50 0 0,0
16.06.2018 22:00:00 18,8 13,6 17,9 25,5 25,9 17,8 9 5 29 16 W 1015,5 10 23 0,0
16.06.2018 21:00:00 20,6 13,7 20,2 27,9 26,3 17,8 15 8 30 16 W 1014,9 10 49 0,0
16.06.2018 20:00:00 21,7 14,2 22,2 30,3 26,6 17,8 21 11 34 18 W 1014,4 10 27 0,0
16.06.2018 19:00:00 24,1 12,3 25,6 33,1 26,5 17,8 11 6 18 10 W 1013,6 10 31 0,0
16.06.2018 18:00:00 24,4 11,1 28,1 35,9 25,9 17,8 12 7 22 12 W 1013,7 60 60 0,0
16.06.2018 17:00:00 24,6 11,2 28,6 36,5 25,0 17,8 9 5 16 9 SW 1014,0 60 60 0,0
16.06.2018 16:00:00 24,5 12,4 30,1 35,6 23,9 17,8 11 6 22 12 W 1014,2 10 57 0,0
16.06.2018 15:00:00 24,2 11,9 31,2 33,4 22,9 17,8 12 6 22 12 W 1014,6 50 50 0,0

tt = temperature
td = dewpoint
tt 5cm = temperature 5cm
tt -5cm = temperature -5cm
tt -20cm = temperature -20cm
tt -100cm = temperature -100cm
ff = wind speed
fx = gusts
dd = wind direction
ppp = reduced air pressure
vv = visibility
sd = sunshine duration
rr = precipitation

Next stations